Dewpoint
-27 -17 -18 -11 -9 -9 -8 -10 -11 0 12 11 9 9 10 12 10 10 13 13 13 8 5 4 4 4 4 5 6 7 7 11 11 11 12 10 8 7 8 8 8 8 6 6 6 9 8 9 8
-24 -19 -14 -11 -8 -7 -8 -10 -1 7 11 10 11 11 12 13 13 13 13 13 13 11 7 4 2 2 2 2 6 7 9 10 8 7 11 12 12 11 10 11 11 9 7 10 8 7 7 10 11
-13 -14 -15 -10 -8 -6 -7 -9 6 8 9 6 11 12 12 13 13 13 13 13 12 11 9 5 2 0 -1 -1 -0 0 2 4 5 -0 6 6 11 12 12 12 12 11 11 11 11 9 8 8 8
-13 -14 -15 -10 -9 -10 -9 -6 4 7 8 10 11 12 12 12 11 10 12 12 9 7 6 3 2 -0 -2 -2 -2 -2 -2 -2 -2 -2 -1 5 10 11 12 11 10 12 10 10 10 8 7 9 8
-14 -15 -12 -12 -11 -11 -5 3 3 6 7 7 8 11 12 12 8 9 9 7 4 3 2 2 1 -0 -1 -2 -2 -2 -1 -0 1 -1 -2 -2 -3 1 8 11 11 8 7 8 9 10 10 9 9
-14 -14 -11 -10 -12 -13 -13 -2 3 6 5 5 9 9 11 12 10 12 10 6 5 3 3 5 5 3 1 -1 -2 -1 0 1 2 1 1 2 3 2 -1 -2 -3 -3 -1 2 3 -0 -3 -3 -1
-14 -14 -11 -12 -12 -13 -13 -11 -11 -4 2 2 3 8 12 10 12 11 11 9 5 5 3 2 4 3 1 -1 -1 2 3 2 2 2 2 3 3 4 4 4 4 4 4 3 3 3 4 5 5
-15 -14 -13 -13 -13 -14 -16 -12 -11 -10 -4 2 4 6 12 11 11 12 12 10 9 7 6 6 4 0 -3 -1 2 6 6 6 4 3 2 2 2 2 2 3 4 4 5 7 7 7 7 8 7
-15 -11 -9 -11 -12 -12 -12 -11 -11 -10 -2 -5 3 1 3 11 12 12 11 11 11 9 9 8 6 3 2 4 5 8 8 7 7 5 3 3 5 5 4 3 2 3 4 7 7 7 5 6 9
-13 -9 -10 -11 -13 -11 -9 -10 -12 -6 3 5 2 0 5 11 11 10 10 10 10 10 9 8 4 -0 -2 4 5 8 8 9 8 7 4 4 4 6 1 -1 -3 -4 0 4 4 4 4 3 2
-8 -7 -10 -8 -10 -9 -7 -7 -9 -8 -1 3 -2 1 6 10 11 10 10 8 9 10 9 4 1 -2 -4 0 8 8 9 7 7 4 5 3 3 1 -3 -6 -7 -9 -7 -3 -2 -7 -2 -2 -5
-8 -7 -8 -8 -8 -7 -7 -8 -7 -8 -9 -8 -4 -3 1 6 7 8 9 9 10 10 7 2 0 -2 -4 -3 4 7 8 7 7 3 2 3 2 -1 -4 -7 -9 -8 -8 -9 -11 -11 -7 -5 -7
-7 -7 -7 -6 -7 -7 -7 -8 -8 -8 -9 -6 -0 2 1 -0 -1 2 7 8 9 9 3 0 -1 -3 -3 -6 -3 2 6 7 8 7 5 4 3 -0 -2 -2 -5 -8 -8 -8 -8 -8 -8 -6 -6
-5 -5 -6 -6 -6 -6 -6 -7 -7 -8 -9 -7 -1 2 1 1 2 4 6 3 6 4 1 -1 -3 -4 -3 -3 -4 -0 6 8 8 8 8 6 5 1 -1 -1 -2 -3 -2 -4 -6 -7 -10 -12 -13
-5 -4 -5 -5 -5 -7 -8 -10 -9 -10 -9 -7 -3 1 2 1 1 2 1 2 1 1 0 -1 -3 -3 -2 -2 -3 -2 1 3 4 4 4 2 -1 -4 -5 -4 -3 -2 -1 -2 -3 -5 -11 -11 -12
-5 -6 -4 -6 -6 -8 -10 -7 -10 -9 -7 -8 -4 0 2 1 0 0 1 0 1 1 -0 -3 -3 -2 -2 -3 -3 -3 -4 -4 -4 -2 -3 -3 -4 -4 -5 -6 -6 -5 -3 -4 -5 -8 -10 -9 -8
-5 -4 -5 -5 -5 -4 -8 -6 -8 -6 -5 -7 -8 -3 -2 -2 -4 -3 0 0 0 -0 -2 -3 -3 -2 -3 -4 -4 -4 -4 -5 -5 -4 -4 -4 -3 -4 -4 -4 -5 -7 -6 -6 -6 -7 -8 -6 -6
-3 -4 -4 -4 -4 -3 -2 -4 -5 -4 -7 -7 -7 -7 -6 -5 -5 -4 -3 -2 -0 -2 -3 -3 -3 -3 -4 -4 -4 -4 -5 -4 -4 -5 -5 -4 -4 -4 -4 -3 -3 -4 -7 -7 -7 -6 -6 -6 -6
-6 -3 -1 -3 -4 -1 -1 -1 -2 -5 -7 -7 -7 -7 -7 -6 -7 -7 -6 -5 -2 -3 -3 -3 -4 -3 -3 -3 -3 -4 -4 -4 -4 -4 -4 -4 -5 -5 -5 -4 -3 -3 -4 -4 -5 -5 -5 -5 -5
-3 -2 -2 -2 -3 -1 -1 -1 -7 -8 -7 -5 -4 -4 -5 -5 -6 -6 -5 -4 -3 -4 -4 -4 -4 -3 -3 -3 -3 -3 -3 -3 -3 -3 -3 -4 -4 -4 -4 -5 -4 -3 -3 -3 -4 -4 -5 -4 -4
-4 -2 -2 -1 -1 -2 -1 -1 -5 -6 -5 -5 -5 -4 -4 -5 -5 -4 -4 -4 -4 -4 -4 -3 -3 -3 -3 -3 -2 -2 -2 -2 -2 -2 -2 -2 -3 -4 -4 -4 -4 -3 -3 -3 -3 -4 -4 -4 -4
-2 -4 -2 -1 1 2 -1 2 -3 -6 -6 -5 -5 -5 -5 -5 -5 -4 -4 -4 -4 -4 -3 -3 -3 -3 -3 -2 -2 -2 -1 -1 -1 -1 -1 -1 -1 -3 -4 -4 -4 -3 -2 -2 -3 -3 -4 -3 -3
-1 -2 -0 1 2 1 0 -0 -1 -3 -5 -3 -4 -4 -4 -4 -4 -4 -4 -4 -3 -3 -2 -2 -1 -2 -2 -2 -1 -0 -0 -0 -0 -0 -0 -0 -0 -0 -3 -4 -4 -3 -1 -2 -3 -3 -2 -2 -2
-2 1 1 1 2 4 1 1 1 -1 -3 -3 -3 -3 -4 -4 -4 -4 -3 -2 -2 -2 -2 -2 -2 -1 -1 0 0 0 -0 -0 -0 -1 -2 -1 -1 -1 -0 -1 -4 -1 -1 -2 -2 -1 -2 -3 -3
0 3 4 3 5 5 2 1 0 -2 -3 -4 -4 -3 -2 -2 -4 -3 -2 -2 -1 -1 -1 -0 -0 -0 -0 -0 -0 -0 -0 -2 -1 -2 -2 -3 -3 -3 -3 -1 -3 -1 -1 -1 -2 -3 -2 -1 0
1 2 4 4 7 6 2 3 1 -3 -1 -2 -1 -1 -1 -1 -2 -2 -0 -0 -0 -0 -0 -0 -0 -0 -0 -1 -1 -1 -2 -3 -2 -2 -3 -4 -4 -3 -1 -1 -0 -1 -2 -3 -2 -1 -1 -0 -1
2 4 1 3 4 5 4 2 -0 -2 0 0 -0 -0 0 -0 -0 -0 -0 -0 -0 0 0 0 0 -1 -2 -3 -3 -2 -2 -3 -2 -2 -4 -4 -4 -2 -2 -3 -3 -4 -3 -1 -1 -1 -2 -2 -5
0 0 4 4 4 7 6 5 4 1 2 -0 0 0 0 0 0 0 0 1 1 1 -0 -2 -2 -2 -4 -2 -3 -2 -1 -5 -3 -3 -4 -4 -4 -2 -3 -4 -4 -3 -1 -1 -3 -6 -7 -8 -8
3 4 3 4 5 7 7 6 2 1 1 0 0 1 1 1 1 1 1 1 -0 -1 -1 -2 -1 -3 -3 -2 -0 0 -4 -4 -4 -4 -4 -4 -4 -4 -5 -4 -2 -2 -8 -8 -8 -8 -8 -8 -8
1 3 3 6 6 4 5 5 -1 -1 0 1 2 2 2 2 2 2 2 1 -0 -2 -0 -2 -3 -3 -2 0 1 -0 -2 -4 -4 -3 -4 -4 -5 -3 -2 -3 -6 -9 -8 -8 -8 -7 -8 -9 -10
Wind_Speed
1 1 1 1 4 5 2 4 3 5 4 5 13 13 8 5 1 3 9 7 8 7 9 8 6 7 5 5 3 5 6 6 6 6 7 7 8 8 7 7 8 11 4 4 4 10 11 13 12
3 1 2 3 5 5 4 4 6 3 17 22 15 6 6 3 4 13 14 13 7 7 7 7 6 4 5 5 3 4 6 6 5 4 5 7 8 10 11 11 13 14 9 12 13 9 9 8 12
4 2 2 5 4 3 1 1 6 7 21 2 6 8 4 3 9 10 11 11 6 8 6 7 7 7 7 6 3 3 2 2 3 3 5 9 10 12 13 15 13 14 17 19 12 7 7 8 14
2 2 6 6 6 2 2 2 10 10 6 5 11 6 5 3 4 9 12 9 6 10 11 10 9 10 8 5 4 3 1 0 2 3 3 5 7 10 13 17 17 12 13 11 9 8 7 7 9
5 4 5 4 3 0 3 12 5 4 3 2 3 4 4 7 13 16 13 10 8 13 13 11 9 7 6 4 3 1 0 1 2 4 5 6 8 9 9 10 10 9 8 9 10 10 9 10 11
5 4 5 3 3 2 2 17 18 9 10 10 10 8 3 12 13 14 13 12 11 10 10 8 7 5 4 4 5 4 3 4 6 6 7 7 6 6 5 6 6 7 7 8 7 8 7 8 12
5 4 4 4 2 3 2 6 10 7 4 3 11 5 10 14 12 12 10 9 8 7 5 3 2 1 3 5 6 6 6 6 8 6 7 7 5 4 3 3 5 6 6 6 6 6 6 6 8
4 5 3 3 1 2 3 3 8 10 1 7 1 5 7 19 15 12 11 9 6 5 3 1 3 5 7 7 7 7 8 5 6 6 6 6 6 6 5 4 4 5 6 6 5 6 7 7 8
4 5 2 1 2 3 5 3 6 8 8 1 1 3 7 23 18 18 16 12 10 7 5 3 5 6 9 9 8 6 4 4 6 5 6 6 6 5 4 5 5 6 5 7 7 7 8 9 10
7 5 5 1 3 2 3 4 2 4 5 2 5 6 20 24 20 21 19 16 12 9 6 4 5 7 10 9 8 6 5 6 8 7 7 7 7 7 6 6 7 7 7 8 9 10 10 11 11
3 4 4 3 4 5 3 0 2 13 1 9 13 17 24 22 22 19 18 14 11 10 9 7 5 7 9 7 7 7 8 8 9 8 9 10 10 10 10 10 11 10 11 11 12 13 12 12 12
5 1 4 1 5 3 2 1 0 2 4 7 12 13 22 22 20 23 22 20 18 17 13 7 6 10 11 9 8 9 11 11 11 10 11 12 13 13 13 13 13 13 13 13 14 15 15 15 14
4 2 4 4 3 4 3 4 3 7 5 13 16 21 20 18 17 19 17 18 20 19 15 10 10 12 10 11 10 10 11 13 14 15 15 15 15 15 15 16 15 14 15 15 15 15 16 17 17
4 6 9 5 9 6 1 4 2 4 8 16 23 24 21 20 18 19 20 19 21 20 14 10 9 10 10 11 12 12 13 15 17 18 18 18 19 18 19 19 18 17 17 17 17 16 16 16 16
4 5 7 4 6 2 1 5 6 4 4 21 26 26 25 22 20 23 20 22 18 16 14 11 11 11 9 11 11 12 14 16 18 19 20 20 19 20 20 20 21 21 20 19 18 17 16 16 14
5 5 5 7 2 5 2 10 10 5 8 22 25 29 29 26 25 22 21 19 18 18 16 12 11 11 11 13 13 12 14 17 18 18 19 19 18 18 20 21 22 22 22 21 20 18 16 15 14
7 2 3 6 5 4 2 8 13 13 13 17 26 30 29 26 23 22 22 22 22 19 15 11 11 10 13 13 15 16 18 18 17 19 20 20 21 21 21 21 21 22 22 22 21 19 19 17 16
3 3 4 4 5 7 5 9 11 9 13 20 19 25 24 23 22 20 21 23 23 19 14 10 10 11 11 11 13 15 18 19 19 19 20 22 24 26 24 22 22 22 23 24 23 21 21 20 18
1 1 3 4 3 7 5 9 11 13 4 5 2 12 12 9 6 11 21 20 19 17 12 8 8 8 10 10 12 15 19 22 24 22 22 22 23 26 27 27 27 26 26 25 25 23 24 23 21
3 2 4 6 5 2 7 10 8 9 5 6 18 18 17 13 8 5 5 8 9 6 6 7 9 11 11 12 12 16 20 23 27 28 28 29 28 28 29 32 32 33 32 31 30 30 28 27 23
3 2 3 5 7 2 6 5 6 6 10 9 10 12 14 14 13 12 9 6 5 5 5 8 12 13 14 15 16 17 20 24 28 30 32 32 34 35 34 35 36 38 38 37 35 33 31 29 27
4 3 2 6 4 2 5 3 5 4 4 7 5 7 11 12 11 9 7 5 9 10 10 12 14 15 15 17 18 21 25 31 31 33 35 36 36 39 40 40 39 41 41 40 36 32 32 32 30
6 7 4 3 3 2 8 4 6 6 4 4 3 7 7 6 5 6 8 9 8 7 10 12 14 14 15 14 16 23 30 31 34 35 38 38 40 41 42 41 41 42 41 36 34 35 34 33 29
8 4 5 4 3 2 1 3 6 3 3 3 0 4 3 4 5 7 6 7 9 11 12 13 12 10 11 19 25 31 32 36 41 43 43 37 36 34 34 36 40 42 41 36 35 32 28 25 25
8 6 4 4 4 4 2 2 5 3 2 1 7 9 19 15 13 11 11 11 10 8 6 7 10 14 20 25 27 35 37 42 43 38 32 33 35 36 38 34 39 40 38 39 37 30 25 21 24
3 3 4 3 1 4 6 2 4 6 16 16 18 16 12 6 9 6 2 2 2 4 9 13 18 23 27 33 37 37 34 33 32 32 32 32 31 32 30 23 28 31 30 25 20 20 22 28 25
3 5 1 5 3 2 4 5 6 6 7 9 13 7 9 12 11 8 4 4 6 11 17 22 27 31 33 31 30 29 29 31 31 30 30 31 28 25 23 23 25 22 17 18 20 25 21 19 15
4 2 4 4 2 3 5 6 5 5 11 18 17 11 11 9 9 9 8 10 15 24 23 27 28 29 30 29 29 32 36 33 26 26 28 27 24 21 23 24 21 21 21 26 21 16 11 16 20
4 4 5 3 3 3 3 5 5 5 8 10 7 11 12 4 9 15 21 22 27 28 27 26 28 30 29 27 30 35 37 29 27 26 26 26 18 18 14 16 22 22 8 9 11 14 17 21 24
4 5 4 3 3 2 3 7 5 5 10 7 11 14 15 9 19 25 24 26 28 30 29 31 29 33 32 30 34 41 36 28 28 22 17 15 13 16 21 19 11 8 10 14 17 20 25 26 28
Wind_Direction
54 352 323 290 59 68 284 356 6 119 43 30 85 92 106 52 58 169 140 164 153 113 116 126 141 147 153 121 152 173 157 158 164 176 183 188 189 197 197 197 193 183 221 292 259 259 266 241 228
110 133 156 80 81 64 320 325 16 68 132 105 88 81 46 70 82 135 142 146 141 130 113 122 126 136 143 114 122 134 140 153 157 174 195 198 197 207 210 220 222 214 248 289 294 275 263 254 245
84 123 86 90 98 96 175 54 127 124 154 58 111 65 43 96 130 151 158 147 143 155 122 120 114 105 92 95 119 113 136 179 227 233 196 210 213 216 224 232 229 238 274 292 303 284 255 248 253
79 61 69 77 103 357 32 287 137 139 128 115 132 77 85 143 102 135 136 136 138 120 113 106 102 108 110 108 88 62 54 273 279 262 247 239 238 237 242 249 248 277 279 295 294 296 280 259 236
69 52 56 95 71 302 147 94 116 88 98 42 162 118 87 122 121 112 112 109 106 116 111 110 105 100 100 84 71 50 337 281 270 278 287 275 263 256 254 263 273 283 294 298 297 308 308 291 275
67 82 57 44 324 173 47 104 92 82 110 111 103 103 104 137 136 117 110 106 114 126 130 122 109 107 75 36 9 355 325 279 262 267 276 274 266 265 261 263 278 283 275 275 283 291 289 285 277
101 68 143 160 355 38 99 87 115 139 162 215 141 89 150 163 149 135 120 113 132 154 160 182 160 100 20 0 342 341 331 291 265 268 268 271 279 281 273 265 267 269 275 272 272 280 289 290 279
107 94 59 332 51 329 329 139 130 117 122 127 18 146 180 171 163 152 160 153 146 169 165 300 300 326 337 327 321 342 348 296 284 267 257 260 274 281 293 302 307 295 291 286 275 282 286 281 271
94 65 65 157 142 281 346 89 63 84 125 70 25 156 157 167 170 175 174 173 185 206 212 273 311 313 315 309 310 341 349 336 322 300 266 272 282 278 291 278 277 276 267 265 272 267 276 285 282
79 87 203 206 157 200 351 68 56 88 121 111 144 144 157 172 175 176 183 191 207 222 232 258 279 301 300 287 281 289 305 307 311 298 267 275 280 266 274 273 272 271 262 261 274 281 285 282 278
66 144 185 222 225 182 191 61 92 131 220 187 179 164 171 180 179 191 195 213 223 221 229 244 262 315 312 285 263 267 281 294 302 300 279 277 276 276 281 290 294 294 286 281 282 284 281 287 292
77 215 193 156 170 199 186 142 190 189 224 193 201 191 183 188 197 199 201 210 217 227 231 242 284 323 317 291 265 265 276 285 289 297 291 284 278 279 281 287 289 290 287 284 285 286 287 287 288
69 315 301 335 307 293 311 293 286 260 239 206 199 191 189 193 195 200 210 220 218 222 225 254 297 310 307 289 278 275 277 288 287 293 295 288 285 280 280 284 282 279 280 280 278 276 278 280 284
329 331 307 328 278 277 223 271 292 264 230 202 199 202 196 192 194 204 212 215 213 212 232 254 289 305 316 319 286 277 275 279 284 287 289 287 287 284 283 281 279 278 280 281 281 281 282 282 282
351 352 345 322 274 242 197 317 241 262 246 206 203 209 202 203 205 214 224 219 223 235 238 258 282 288 302 325 304 282 278 279 280 281 284 287 285 286 285 280 279 280 282 284 281 283 284 283 284
40 45 13 317 62 17 75 262 272 266 289 222 215 211 209 210 215 222 231 239 237 234 239 250 276 286 304 320 323 309 303 303 297 290 288 287 289 289 288 284 283 279 276 277 279 282 281 282 286
17 343 338 319 57 14 215 273 263 289 282 242 224 214 210 212 218 227 232 235 231 233 235 256 277 291 314 320 324 322 317 313 308 303 301 294 292 295 288 287 290 280 275 275 274 272 274 277 281
291 343 319 256 312 346 308 269 276 301 263 245 244 226 222 225 235 235 237 237 229 228 231 256 280 316 318 321 326 321 315 310 307 306 306 302 295 295 289 285 288 279 273 274 272 271 272 272 279
184 79 314 281 288 352 302 286 299 318 115 105 102 200 201 206 228 245 241 234 222 219 228 262 306 322 321 317 331 330 323 312 303 300 297 294 291 288 286 283 282 277 273 278 273 269 268 269 273
24 358 309 297 297 355 323 308 337 34 42 78 117 124 123 118 117 111 116 180 192 231 250 281 302 300 312 308 320 337 337 324 308 301 294 289 284 282 283 275 272 271 268 267 266 265 264 264 264
312 214 273 253 321 267 329 346 5 17 78 97 100 109 114 113 118 116 121 153 199 246 272 290 298 291 290 292 293 306 311 310 312 306 299 298 292 284 276 271 267 266 264 261 262 257 253 254 256
323 204 265 300 23 266 39 291 6 324 74 55 71 119 140 146 143 146 166 222 246 252 272 289 289 290 296 294 300 304 300 295 294 296 297 299 296 287 279 271 265 263 258 255 252 244 240 241 242
253 301 269 208 195 74 343 65 300 354 34 351 96 155 155 152 159 193 230 239 248 265 285 276 275 276 279 292 302 309 302 297 303 303 302 299 296 288 278 271 269 258 250 247 241 235 231 231 227
298 355 34 58 96 29 144 125 318 332 253 260 216 56 344 263 273 269 261 256 269 263 252 255 262 271 296 309 302 302 300 303 305 306 305 302 300 298 291 280 260 247 242 236 231 221 217 221 224
15 32 2 12 6 224 7 41 217 289 309 12 60 1 323 298 263 258 246 260 249 250 258 289 299 299 306 302 296 298 298 301 300 302 303 300 298 295 290 282 251 238 232 234 215 209 220 237 242
340 80 134 196 286 291 342 199 227 195 78 69 10 343 327 286 270 245 284 191 187 303 313 315 315 311 305 305 304 303 306 307 304 306 308 306 301 294 283 253 221 211 203 203 220 238 258 270 271
328 37 187 101 6 26 294 294 285 221 357 46 3 350 60 76 68 64 47 12 342 329 323 315 311 312 314 317 322 321 319 316 313 311 309 306 304 291 246 213 199 201 217 243 284 311 306 301 303
92 141 37 15 43 306 299 288 240 311 345 3 6 55 39 51 53 45 25 349 332 327 325 324 320 320 323 322 324 321 319 322 314 306 303 302 296 272 232 219 223 248 272 298 309 316 308 291 286
355 30 41 106 123 210 301 259 213 349 14 328 46 17 15 23 1 350 340 333 329 329 323 326 324 324 326 322 322 321 328 322 313 301 296 293 264 223 227 256 266 308 320 301 301 294 293 294 294
110 135 105 118 276 242 198 265 316 90 23 61 19 9 2 342 328 329 324 329 329 330 327 332 332 329 327 322 323 326 329 316 299 282 274 257 243 259 265 278 294 297 307 301 295 294 296 296 296
Height
1508 1509 1508 1507 1518 1527 1534 1521 1516 1519 1523 1521 1518 1518 1523 1525 1526 1534 1531 1531 1531 1531 1532 1533 1534 1535 1537 1535 1539 1539 1537 1540 1541 1541 1541 1541 1542 1542 1539 1541 1542 1540 1540 1543 1542 1542 1540 1539 1540
1509 1508 1509 1507 1528 1543 1538 1521 1522 1521 1524 1524 1524 1525 1525 1530 1528 1528 1530 1533 1533 1532 1533 1533 1534 1538 1539 1536 1540 1541 1540 1540 1540 1541 1541 1541 1541 1542 1538 1542 1539 1540 1537 1542 1541 1540 1539 1539 1542
1510 1510 1508 1517 1537 1539 1533 1521 1521 1523 1523 1523 1525 1525 1526 1530 1530 1531 1532 1533 1533 1533 1535 1536 1536 1538 1538 1538 1540 1540 1540 1540 1541 1541 1539 1540 1541 1539 1540 1538 1538 1540 1539 1539 1538 1538 1539 1540 1541
1510 1510 1512 1526 1531 1523 1522 1522 1520 1522 1525 1525 1525 1527 1529 1531 1530 1532 1533 1535 1535 1536 1536 1538 1539 1538 1539 1544 1542 1542 1541 1541 1542 1541 1538 1539 1539 1539 1538 1537 1536 1539 1537 1537 1535 1536 1538 1538 1539
1508 1511 1525 1531 1528 1524 1522 1520 1519 1521 1523 1524 1523 1527 1530 1532 1532 1532 1534 1536 1537 1538 1537 1539 1541 1543 1542 1544 1543 1544 1542 1541 1541 1541 1538 1538 1538 1538 1538 1538 1537 1537 1537 1536 1535 1535 1536 1536 1537
1508 1512 1535 1543 1533 1523 1522 1520 1520 1521 1524 1523 1524 1526 1532 1532 1534 1534 1535 1535 1538 1539 1539 1541 1542 1544 1544 1545 1543 1543 1541 1541 1541 1540 1539 1538 1538 1537 1538 1538 1537 1536 1536 1535 1534 1534 1534 1533 1533
1510 1520 1537 1535 1528 1524 1523 1521 1520 1522 1524 1524 1524 1529 1532 1533 1535 1536 1537 1537 1539 1540 1541 1542 1543 1544 1543 1543 1542 1541 1540 1540 1539 1539 1538 1539 1539 1539 1538 1538 1536 1536 1535 1534 1533 1533 1532 1531 1531
1511 1519 1534 1534 1534 1528 1522 1521 1522 1523 1526 1525 1524 1526 1534 1531 1532 1536 1537 1537 1539 1541 1541 1543 1543 1544 1543 1542 1542 1541 1541 1540 1540 1539 1538 1538 1538 1538 1537 1536 1535 1535 1534 1533 1533 1532 1531 1531 1530
1512 1530 1543 1531 1532 1529 1523 1521 1521 1523 1524 1526 1524 1525 1525 1529 1531 1533 1536 1536 1540 1540 1541 1541 1543 1543 1543 1543 1543 1543 1543 1542 1541 1540 1538 1538 1537 1536 1536 1536 1535 1534 1533 1532 1531 1530 1530 1529 1529
1513 1535 1532 1524 1525 1528 1526 1523 1523 1525 1526 1527 1524 1526 1526 1529 1530 1532 1534 1536 1537 1539 1540 1541 1542 1542 1542 1542 1543 1543 1543 1542 1541 1539 1538 1537 1536 1536 1536 1536 1535 1535 1534 1532 1530 1529 1528 1527 1527
1521 1531 1526 1524 1524 1527 1527 1524 1522 1525 1527 1526 1524 1526 1527 1528 1531 1532 1533 1535 1536 1539 1540 1541 1541 1541 1541 1541 1541 1541 1541 1541 1539 1538 1537 1536 1536 1535 1535 1534 1534 1533 1532 1531 1530 1528 1527 1526 1525
1526 1524 1523 1521 1524 1527 1524 1523 1521 1522 1522 1521 1523 1524 1525 1527 1529 1530 1531 1533 1534 1537 1538 1539 1539 1539 1539 1539 1540 1540 1539 1539 1538 1537 1536 1535 1534 1533 1533 1532 1532 1531 1530 1529 1529 1527 1526 1525 1525
1524 1524 1524 1522 1523 1524 1524 1524 1522 1520 1521 1521 1522 1523 1525 1527 1528 1530 1532 1532 1534 1535 1538 1539 1539 1539 1540 1539 1538 1537 1537 1537 1536 1535 1535 1534 1533 1532 1531 1530 1529 1528 1528 1527 1526 1525 1524 1523 1522
1525 1523 1522 1522 1524 1524 1524 1523 1524 1518 1517 1518 1520 1520 1523 1525 1527 1529 1529 1530 1531 1534 1536 1537 1538 1538 1538 1536 1535 1535 1534 1535 1534 1533 1532 1532 1531 1530 1530 1528 1527 1525 1525 1524 1523 1523 1522 1522 1521
1524 1525 1523 1523 1522 1523 1522 1525 1522 1517 1516 1515 1515 1517 1521 1522 1524 1524 1525 1527 1529 1532 1535 1536 1536 1536 1536 1535 1534 1533 1532 1532 1531 1530 1530 1528 1527 1526 1525 1525 1524 1523 1522 1521 1520 1520 1520 1519 1518
1529 1532 1541 1526 1522 1523 1525 1532 1516 1516 1514 1513 1513 1514 1516 1518 1519 1521 1524 1526 1528 1531 1532 1534 1534 1534 1534 1533 1533 1532 1531 1529 1528 1527 1527 1525 1524 1523 1521 1520 1520 1519 1519 1518 1518 1517 1517 1516 1515
1541 1548 1541 1534 1527 1527 1526 1526 1513 1512 1511 1508 1509 1511 1513 1517 1519 1521 1523 1525 1527 1530 1531 1533 1533 1533 1532 1531 1530 1529 1527 1526 1525 1523 1522 1521 1520 1519 1518 1517 1516 1515 1515 1514 1513 1513 1513 1512 1511
1549 1546 1542 1540 1531 1528 1526 1524 1511 1509 1507 1505 1506 1509 1513 1516 1519 1521 1523 1524 1526 1529 1531 1532 1532 1531 1530 1528 1526 1526 1525 1524 1523 1521 1519 1517 1516 1514 1514 1513 1511 1510 1510 1510 1509 1508 1507 1506 1506
1538 1541 1544 1536 1530 1530 1528 1525 1512 1506 1505 1505 1505 1508 1512 1516 1518 1518 1519 1521 1524 1528 1530 1531 1531 1529 1527 1526 1523 1522 1520 1519 1518 1517 1516 1514 1513 1511 1509 1508 1507 1505 1504 1504 1504 1504 1503 1502 1501
1538 1540 1544 1537 1531 1534 1529 1524 1515 1512 1513 1512 1510 1512 1514 1516 1518 1519 1519 1522 1526 1529 1529 1529 1529 1527 1525 1524 1522 1520 1518 1516 1514 1512 1510 1508 1507 1506 1504 1502 1501 1500 1498 1497 1496 1496 1496 1497 1496
1541 1541 1542 1544 1537 1530 1530 1526 1522 1518 1517 1519 1519 1519 1519 1520 1520 1521 1522 1525 1526 1527 1528 1527 1525 1524 1522 1521 1519 1517 1514 1512 1509 1507 1504 1502 1499 1497 1496 1494 1493 1492 1491 1489 1489 1488 1489 1490 1490
1547 1536 1538 1540 1543 1548 1534 1547 1528 1523 1522 1523 1523 1523 1522 1522 1522 1522 1523 1524 1525 1524 1524 1523 1523 1521 1520 1518 1515 1512 1510 1507 1505 1502 1499 1495 1493 1490 1487 1486 1484 1483 1482 1482 1482 1482 1482 1482 1482
1542 1534 1537 1536 1542 1543 1542 1549 1537 1527 1526 1525 1523 1522 1523 1523 1522 1522 1521 1522 1522 1522 1522 1520 1520 1519 1518 1514 1511 1508 1504 1500 1495 1492 1488 1486 1484 1482 1480 1478 1477 1475 1477 1477 1477 1476 1473 1474 1474
1536 1535 1537 1539 1545 1559 1543 1548 1551 1537 1531 1526 1524 1526 1525 1523 1522 1522 1521 1521 1521 1520 1519 1518 1517 1515 1513 1510 1507 1503 1498 1493 1487 1483 1479 1476 1473 1470 1468 1467 1466 1467 1467 1467 1468 1467 1466 1467 1466
1542 1547 1567 1562 1570 1564 1544 1547 1547 1533 1530 1527 1529 1529 1525 1523 1521 1521 1520 1519 1518 1517 1517 1516 1514 1512 1509 1505 1502 1498 1493 1488 1482 1477 1473 1469 1465 1462 1458 1458 1457 1457 1458 1458 1458 1456 1460 1462 1456
1547 1551 1575 1573 1579 1571 1547 1552 1542 1531 1531 1530 1532 1528 1523 1521 1519 1519 1519 1518 1517 1517 1516 1514 1511 1507 1503 1499 1495 1490 1486 1480 1476 1471 1468 1464 1459 1454 1450 1449 1450 1450 1451 1452 1452 1451 1454 1453 1450
1548 1559 1552 1569 1577 1583 1563 1546 1534 1530 1530 1531 1530 1526 1524 1524 1523 1522 1523 1521 1520 1518 1515 1511 1506 1501 1497 1492 1487 1484 1479 1475 1471 1467 1462 1458 1454 1450 1448 1448 1447 1448 1449 1448 1447 1447 1449 1448 1449
1546 1549 1564 1575 1590 1574 1564 1558 1547 1533 1533 1527 1528 1529 1527 1526 1525 1524 1522 1521 1518 1515 1511 1506 1502 1496 1491 1487 1482 1477 1473 1469 1465 1461 1457 1453 1450 1447 1446 1447 1446 1446 1447 1446 1445 1444 1446 1447 1447
1555 1560 1563 1566 1577 1580 1581 1560 1535 1535 1536 1535 1533 1532 1528 1527 1526 1524 1521 1518 1514 1510 1506 1500 1496 1490 1485 1481 1477 1470 1465 1462 1457 1455 1452 1449 1447 1446 1446 1446 1444 1444 1444 1444 1444 1443 1442 1441 1440
1552 1562 1565 1579 1575 1581 1581 1556 1531 1535 1534 1534 1533 1530 1529 1527 1524 1521 1518 1513 1511 1507 1502 1496 1491 1486 1482 1477 1471 1465 1459 1455 1452 1450 1449 1448 1447 1447 1445 1445 1442 1441 1441 1441 1439 1437 1437 1434 1433